sat.trackr.live / text

‹ back to catalog

ONEWEB-0632

NORAD 56073 · 2023-043AD

PAYLOAD ACTIVE UNKNOWN

§ Identity

Operator
Country
UK
Launch date
2023-03-26
Launch site
SRILR
Launch vehicle
Mass (kg)
RCS (m²)

Purposes: comms

External: N2YO · Heavens-Above · Gunter

§ Orbital elements

Epoch: 2026-09-18T22:45:24.026400Z

Period
109.46 min
Inclination
87.8985°
Eccentricity
0.0002198
Mean motion
13.15548524 rev/d
Perigee alt
1,200.1 km
Apogee alt
1,203.4 km
Semi-major
7,579.9 km
B*
1.9462e-4
RAAN
240.5160°
Arg perigee
83.0192°
Mean anomaly
277.1188°
Rev number
16,875

§ Raw data

ONEWEB-06321 56073U 23043AD  26261.94819475  .00000086  00000+0  19462-3 0  99952 56073  87.8985 240.5160 0002198  83.0192 277.1188 13.15548524168758

JSON: /api/v1/satellites/56073 · /tle

For live sub-satellite position, see the globe view (requires WebGL).

§ Visibility from observer

Set your observer location to see the next 7 days of passes ≥ 10°. The values pass through the URL so the page stays shareable.

No JS? Fill the form by hand. The geolocation button needs JavaScript.